Showing default

OCO 2, 40059

Orbit data source: Space-Track

OCO 2, 40059 is a payload satellite owned by GSFC (US) in SSO that was launched on Wed, 02 Jul 2014 UTC via a DELTA 7320-10C launch vehicle from the Air Force Western Test Range (AFWTR). Payloads include a variety of satellites, spacecraft, and rockets equipped with specific instruments for various scientific and technological missions. These include communications satellites like Starlink; space stations such as the ISS; scientific satellites like the Hubble; Earth observation satellites from companies like Planet Labs, Umbra, and HawkEye 360; GPS; miniature CubeSats for education and research; and military/defense satellites.

Loading next visibility...
OCO 2 details
Identifier
40059, 2014-035A
Orbit
SSO
Last TLE update10 hours ago
Origin
Flag of USGSFC (US)
ManufacturerOSC
MissionOperational Civil Science
Bus & MotorLEOSTAR-2, AOCS
Mass454 kg wet, 409 kg dry
Launch date (UTC)
2014-07-02 (10 years ago)
Launch vehicle
DELTA 7320-10C
Launch site
Air Force Western Test Range (AFWTR)
Object type
Payload
Rocket body
Debris
Shape & HBRHex Cyl + 2 Pan, 9 m
Radar Cross Section3.820 m², Large (>1 m²)

Expand to show TLE details & history

TLE from 10 hours ago
0 OCO 2
1 40059U 14035A   24361.26690124  .00001646  00000-0  37510-3 0  9993
2 40059  98.2239 299.3082 0001726  75.7441 284.3949 14.57128666557710
Epoch: 2024-12-26T06:24Z
Definitive object data (Epoch: 2024-12-26T06:24:20.267Z)
Latitude-0.00001°
Longitude107.975°
Altitude705.137 km
Speed7.503 km/s
True Right ascension19h 57m 13s
True Declination0° 00' 00"
Sunlit
Object was in daylight at TLE epoch
Visualization TLE readout
Latitude-20.7059°
Longitude111.49258°
Altitude710.45 km
Speed7.499 km/s
Apparent Right ascension23h 03m 34s
Apparent Declination-44° 21' 38"
Sunlit
Object is in daylight
Visualization observer readout
Local Sidereal Time15:34:02
Azimuth118.675° SE
Elevation-41.105°
Doppler factor1
Orbital elements
Apogee altitude700.768 km
Perigee altitude698.325 km
Semi-major axis7,077.684 km
Eccentricity0.0001726
Inclination98.2239°
RAAN299.3082°
Arg. of periapsis75.7441°
True anomaly284.37574°
Mean anomaly284.3949°
Eccentric anomaly284.38532°
Mean motion3.64507 °/min
BSTAR0.0003751
Orbital period98.76 mins
Loading maneuver chart data...
Loading historical data...
Loading historical data...
Loading historical data...
Loading historical data...
Loading historical data...
Loading historical data...
Loading historical data...
Other satellites on launch #35 in the year 2014 (2014-07-02 UTC)

OCO 2 Visibility forecast

Observer location: undefined°, undefined

Span
Click to sort rows by Start time (UTC) header in descending order
Start Az.
Max El. time (UTC)
Max El. Az.
Max El.
End time (UTC)
End Az.
8 mins2024-12-26 19:42:55.010Z146.257° SSE2024-12-26 19:46:55.010Z65.787° ENE38.552°2024-12-26 19:50:55.010Z358.389° N
8 mins2024-12-27 09:20:55.010Z0.588° NNE2024-12-27 09:24:55.010Z263.811° W38.832°2024-12-27 09:28:55.010Z210.108° SW
|